User: anonymous   Login
Location: Unspecified
(0.0000°N, 0.0000°E)
Time: 01:52:08
(UTC+00:00)
Language:

STARLINK-1991 - Orbit

View from above orbital plane
View from above orbital plane
View from above satellite
View from above satellite

Ground track
Ground track

The orbit is defined by the following mean orbital elements,

1 47587U          26145.66668980 +.00000000 +00000-0 +82826-3 0 00000
2 47587  53.0374 308.7093 0005700 279.5156  65.6702 15.87408082    01
Epoch (UTC): 25 May 2026 16:00:01
Eccentricity: 0.0005700
inclination: 53.0374°
perigee height: 306 km
apogee height: 313 km
right ascension of ascending node: 308.7093°
argument of perigee: 279.5156°
revolutions per day: 15.87408082
mean anomaly at epoch: 65.6702°

The dashed part of the orbit path shows where the satellite is in the earth's shadow,  

DLR